TimeCST,TemperatureF,Dew PointF,Humidity,Sea Level PressureIn,VisibilityMPH,Wind Direction,Wind SpeedMPH,Gust SpeedMPH,PrecipitationIn,Events,Conditions,WindDirDegrees,DateUTC
12:53 AM,26.1,18.0,71,30.14,10.0,Calm,Calm,-,N/A,,Clear,0,2012-12-11 06:53:00
1:53 AM,25.0,19.0,78,30.14,10.0,Calm,Calm,-,N/A,,Clear,0,2012-12-11 07:53:00
2:53 AM,23.0,18.0,81,30.15,10.0,Calm,Calm,-,N/A,,Clear,0,2012-12-11 08:53:00
3:53 AM,21.9,16.0,78,30.15,10.0,WSW,4.6,-,N/A,,Clear,240,2012-12-11 09:53:00
4:53 AM,24.1,18.0,77,30.15,10.0,Calm,Calm,-,N/A,,Clear,0,2012-12-11 10:53:00
5:53 AM,21.0,16.0,81,30.17,10.0,Calm,Calm,-,N/A,,Clear,0,2012-12-11 11:53:00
6:53 AM,21.9,16.0,78,30.19,10.0,Calm,Calm,-,N/A,,Clear,0,2012-12-11 12:53:00
7:53 AM,21.9,16.0,78,30.21,10.0,Calm,Calm,-,N/A,,Clear,0,2012-12-11 13:53:00
8:53 AM,27.0,23.0,85,30.22,8.0,Calm,Calm,-,N/A,,Clear,0,2012-12-11 14:53:00
9:53 AM,32.0,23.0,69,30.25,10.0,Variable,3.5,-,N/A,,Clear,0,2012-12-11 15:53:00
10:53 AM,37.0,23.0,57,30.25,10.0,NNE,4.6,-,N/A,,Clear,30,2012-12-11 16:53:00
11:53 AM,39.9,21.9,49,30.22,10.0,ENE,5.8,-,N/A,,Clear,60,2012-12-11 17:53:00
12:53 PM,44.1,16.0,32,30.19,10.0,Calm,Calm,-,N/A,,Clear,0,2012-12-11 18:53:00
1:53 PM,45.0,14.0,29,30.18,10.0,Calm,Calm,-,N/A,,Clear,0,2012-12-11 19:53:00
2:53 PM,46.9,12.9,25,30.17,10.0,WNW,3.5,-,N/A,,Clear,300,2012-12-11 20:53:00
3:53 PM,48.0,10.9,22,30.17,10.0,Calm,Calm,-,N/A,,Clear,0,2012-12-11 21:53:00
4:53 PM,46.0,10.0,23,30.18,10.0,Calm,Calm,-,N/A,,Clear,0,2012-12-11 22:53:00
5:53 PM,39.9,14.0,35,30.19,10.0,Calm,Calm,-,N/A,,Clear,0,2012-12-11 23:53:00
6:53 PM,39.0,14.0,36,30.20,10.0,Calm,Calm,-,N/A,,Clear,0,2012-12-12 00:53:00
7:53 PM,34.0,17.1,50,30.22,10.0,Calm,Calm,-,N/A,,Clear,0,2012-12-12 01:53:00
8:53 PM,30.0,19.0,64,30.25,10.0,Calm,Calm,-,N/A,,Clear,0,2012-12-12 02:53:00
9:53 PM,28.0,19.0,69,30.25,10.0,ENE,3.5,-,N/A,,Clear,60,2012-12-12 03:53:00
10:53 PM,30.9,21.9,69,30.27,10.0,NE,3.5,-,N/A,,Clear,50,2012-12-12 04:53:00
11:53 PM,26.1,19.9,78,30.27,10.0,NE,3.5,-,N/A,,Clear,50,2012-12-12 05:53:00